EUTELSAT 16A (37836 NORAD) Tracking and Keplerian Element Data

This shows tracking and keplerian element data for the satellite.

Feedback or suggestion? Click here.




ElementValue
Catalog37836
NameEUTELSAT 16A
Epoch Orbit232
Epoch Day34.68678845
Epoch Year2025
RAAN17.9201
Inclination0.0688
Eccentricity0.0005791
Argument of Perigee299.6402
Mean Anonmoly79.7466
Mean Motion1.00272923
Decay Rate1.08E-06
L11 37836U 11057A 25034.68678845 .00000108 00000+0 00000+0 0 9994
L22 37836 0.0688 17.9201 0005791 299.6402 79.7466 1.00272923 2327



Live tracking and technical data element details for EUTELSAT 16A (NORAD 37836). EUTELSAT 16A can be tracked NOW for your location showing map with azimuth and elevation plus other details from your city location.







IsCatalogInMostPopularTable: catalog: 37836, numindb: 331
Update: records affected: 1



GetName: 37836 EUTELSAT 16A

Hit Count: updated at: Fri, 16 May 2025 11:15:11 GMT